When you browse on this site, cookies collect data to enhance your experience and personalize the content and advertising you see.
Visit our Privacy Policy to learn more. By continuing to use the site, you agree to this use of cookies and data.
  • In Czech Republic
  • List of Countries
  • For 7 days
  • Water Temperature
  • Satellite Maps
  • Weather Map
  • Weather Widgets
  • user-avatar
    Login

    Hourly Weather Hobart

    Today, 19 January, Saturday

    Time Temperature Precipitation Wind Pressure Humidity
    00:00 +12°C° 0 mm 5 mps 743 mmHg 76%
    01:00 +10°C° 0 mm 5 mps 743 mmHg 78%
    02:00 +11°C° 0 mm 4 mps 744 mmHg 79%
    03:00 +11°C° 0 mm 4 mps 745 mmHg 80%
    04:00 +10°C° 0 mm 2 mps 745 mmHg 83%
    05:00 +11°C° 0 mm 3 mps 745 mmHg 77%
    06:00 +12°C° 0 mm 3 mps 746 mmHg 70%
    07:00 +14°C° 0 mm 3 mps 747 mmHg 64%
    08:00 +15°C° 0 mm 4 mps 747 mmHg 59%
    09:00 +17°C° 0 mm 4 mps 747 mmHg 55%
    10:00 +18°C° 0 mm 4 mps 747 mmHg 48%
    11:00 +19°C° 0 mm 5 mps 748 mmHg 48%
    12:00 +19°C° 0 mm 5 mps 748 mmHg 48%
    13:00 +19°C° 0 mm 5 mps 748 mmHg 48%
    14:00 +20°C° 0 mm 5 mps 748 mmHg 49%
    15:00 +20°C° 0 mm 5 mps 748 mmHg 49%
    16:00 +21°C° 0 mm 5 mps 747 mmHg 47%
    17:00 +20°C° 0 mm 4 mps 747 mmHg 52%
    18:00 +19°C° 0 mm 4 mps 748 mmHg 56%
    19:00 +18°C° 0 mm 3 mps 748 mmHg 61%
    20:00 +17°C° 0 mm 3 mps 748 mmHg 65%
    21:00 +16°C° 0 mm 3 mps 748 mmHg 70%
    22:00 +14°C° 0 mm 3 mps 748 mmHg 73%
    23:00 +14°C° 0 mm 3 mps 748 mmHg 74%

    Tomorrow, 20 January, Sunday

    Time Temperature Precipitation Wind Pressure Humidity
    00:00 +14°C° 0 mm 3 mps 748 mmHg 76%
    01:00 +14°C° 0 mm 3 mps 748 mmHg 77%
    02:00 +15°C° 0 mm 2 mps 748 mmHg 79%
    03:00 +15°C° 0 mm 2 mps 748 mmHg 80%
    04:00 +14°C° 0 mm 2 mps 748 mmHg 82%
    05:00 +16°C° 0 mm 2 mps 748 mmHg 76%
    06:00 +17°C° 0 mm 2 mps 748 mmHg 71%
    07:00 +18°C° 0 mm 2 mps 749 mmHg 66%
    08:00 +20°C° 0 mm 2 mps 749 mmHg 60%
    09:00 +21°C° 0 mm 3 mps 749 mmHg 54%
    10:00 +24°C° 0 mm 3 mps 749 mmHg 48%
    11:00 +25°C° 0 mm 3 mps 749 mmHg 46%
    12:00 +26°C° 0 mm 3 mps 749 mmHg 43%
    13:00 +27°C° 0 mm 3 mps 749 mmHg 41%
    14:00 +27°C° 0 mm 3 mps 749 mmHg 41%
    15:00 +27°C° 0 mm 3 mps 749 mmHg 41%
    16:00 +27°C° 0 mm 3 mps 749 mmHg 42%
    17:00 +25°C° 0 mm 2 mps 749 mmHg 47%
    18:00 +24°C° 0 mm 2 mps 750 mmHg 52%
    19:00 +22°C° 0 mm 1 mps 750 mmHg 57%
    20:00 +20°C° 0 mm 1 mps 750 mmHg 66%
    21:00 +18°C° 0 mm 1 mps 750 mmHg 75%
    22:00 +15°C° 0 mm 1 mps 750 mmHg 84%
    23:00 +15°C° 0 mm 1 mps 750 mmHg 86%

    Day after tomorrow, 21 January, Monday

    Time Temperature Precipitation Wind Pressure Humidity
    00:00 +14°C° 0 mm 1 mps 750 mmHg 89%
    01:00 +14°C° 0 mm 1 mps 749 mmHg 91%
    02:00 +14°C° 0 mm 1 mps 749 mmHg 92%
    03:00 +13°C° 0 mm 1 mps 749 mmHg 94%
    04:00 +13°C° 0 mm 1 mps 749 mmHg 95%
    05:00 +15°C° 0 mm 1 mps 749 mmHg 88%
    06:00 +16°C° 0 mm 1 mps 749 mmHg 81%
    07:00 +18°C° 0 mm 1 mps 749 mmHg 74%
    08:00 +21°C° 0 mm 1 mps 749 mmHg 63%
    09:00 +24°C° 0 mm 1 mps 749 mmHg 53%
    10:00 +27°C° 0 mm 1 mps 748 mmHg 42%
    11:00 +29°C° 0 mm 1 mps 748 mmHg 36%
    12:00 +30°C° 0 mm 2 mps 748 mmHg 30%
    13:00 +32°C° 0 mm 2 mps 747 mmHg 24%
    14:00 +31°C° 0 mm 3 mps 747 mmHg 26%
    15:00 +31°C° 0 mm 3 mps 746 mmHg 28%
    16:00 +30°C° 0 mm 3 mps 746 mmHg 29%
    17:00 +28°C° 0 mm 3 mps 746 mmHg 37%
    18:00 +26°C° 0 mm 2 mps 746 mmHg 45%
    19:00 +23°C° 0 mm 2 mps 746 mmHg 53%
    20:00 +21°C° 0 mm 1 mps 746 mmHg 59%
    21:00 +19°C° 0 mm 1 mps 746 mmHg 65%
    22:00 +16°C° 0 mm 1 mps 747 mmHg 72%
    23:00 +15°C° 0 mm 1 mps 746 mmHg 70%

    22 January, Tuesday

    Time Temperature Precipitation Wind Pressure Humidity
    00:00 +14°C° 0 mm 1 mps 746 mmHg 68%
    01:00 +14°C° 0 mm 2 mps 746 mmHg 67%
    02:00 +13°C° 0 mm 2 mps 745 mmHg 67%
    03:00 +13°C° 0 mm 2 mps 745 mmHg 68%
    04:00 +12°C° 0 mm 2 mps 745 mmHg 69%
    05:00 +14°C° 0 mm 2 mps 745 mmHg 62%
    06:00 +16°C° 0 mm 2 mps 745 mmHg 55%
    07:00 +17°C° 0 mm 2 mps 745 mmHg 49%
    08:00 +20°C° 0 mm 2 mps 745 mmHg 39%
    09:00 +25°C° 0 mm 2 mps 745 mmHg 30%
    10:00 +28°C° 0 mm 2 mps 745 mmHg 21%
    11:00 +30°C° 0 mm 3 mps 745 mmHg 19%
    12:00 +31°C° 0 mm 3 mps 744 mmHg 18%
    13:00 +34°C° 0 mm 3 mps 744 mmHg 17%
    14:00 +34°C° 0 mm 3 mps 743 mmHg 18%
    15:00 +34°C° 0 mm 3 mps 743 mmHg 19%
    16:00 +33°C° 0 mm 3 mps 742 mmHg 21%
    17:00 +30°C° 0 mm 3 mps 742 mmHg 25%
    18:00 +28°C° 0 mm 2 mps 742 mmHg 30%
    19:00 +26°C° 0 mm 2 mps 742 mmHg 34%
    20:00 +24°C° 0 mm 2 mps 742 mmHg 42%
    21:00 +21°C° 0 mm 2 mps 742 mmHg 50%
    22:00 +18°C° 0 mm 2 mps 742 mmHg 58%
    23:00 +18°C° 0 mm 2 mps 743 mmHg 65%

    23 January, Wednesday

    Time Temperature Precipitation Wind Pressure Humidity
    00:00 +18°C° 0 mm 2 mps 743 mmHg 71%
    01:00 +17°C° 0 mm 2 mps 743 mmHg 77%
    02:00 +16°C° 0.2 mm 3 mps 744 mmHg 79%
    03:00 +14°C° 0.2 mm 4 mps 744 mmHg 81%
    04:00 +13°C° 0.2 mm 5 mps 745 mmHg 83%
    05:00 +13°C° 0 mm 5 mps 746 mmHg 78%
    06:00 +13°C° 0 mm 4 mps 747 mmHg 74%
    07:00 +12°C° 0 mm 4 mps 747 mmHg 69%
    08:00 +13°C° 0 mm 4 mps 748 mmHg 63%
    09:00 +13°C° 0 mm 4 mps 749 mmHg 57%
    10:00 +14°C° 0 mm 4 mps 749 mmHg 52%
    11:00 +15°C° 0 mm 4 mps 749 mmHg 46%
    12:00 +18°C° 0 mm 4 mps 749 mmHg 41%
    13:00 +19°C° 0 mm 4 mps 749 mmHg 36%
    14:00 +19°C° 0 mm 4 mps 749 mmHg 38%
    15:00 +18°C° 0 mm 4 mps 749 mmHg 40%
    16:00 +18°C° 0 mm 4 mps 749 mmHg 42%
    17:00 +15°C° 0 mm 4 mps 750 mmHg 46%
    18:00 +14°C° 0 mm 3 mps 750 mmHg 50%
    19:00 +13°C° 0 mm 3 mps 751 mmHg 55%
    20:00 +13°C° 0 mm 2 mps 751 mmHg 61%
    21:00 +12°C° 0 mm 2 mps 751 mmHg 67%
    22:00 +10°C° 0 mm 1 mps 752 mmHg 73%
    23:00 +10°C° 0 mm 2 mps 751 mmHg 73%

    24 January, Thursday

    Time Temperature Precipitation Wind Pressure Humidity
    00:00 +10°C° 0 mm 2 mps 751 mmHg 72%
    01:00 +12°C° 0 mm 2 mps 751 mmHg 72%
    02:00 +10°C° 0 mm 2 mps 750 mmHg 76%
    03:00 +9°C° 0 mm 2 mps 750 mmHg 80%
    04:00 +9°C° 0 mm 2 mps 750 mmHg 85%
    05:00 +10°C° 0 mm 2 mps 750 mmHg 79%
    06:00 +12°C° 0 mm 3 mps 750 mmHg 73%
    07:00 +13°C° 0 mm 3 mps 750 mmHg 67%
    08:00 +17°C° 0 mm 3 mps 750 mmHg 59%
    09:00 +19°C° 0 mm 3 mps 750 mmHg 51%
    10:00 +22°C° 0 mm 3 mps 750 mmHg 43%
    11:00 +23°C° 0 mm 4 mps 749 mmHg 41%
    12:00 +26°C° 0 mm 4 mps 749 mmHg 38%
    13:00 +27°C° 0 mm 5 mps 748 mmHg 36%
    14:00 +27°C° 0 mm 5 mps 747 mmHg 38%
    15:00 +27°C° 0 mm 6 mps 746 mmHg 40%
    16:00 +27°C° 0 mm 6 mps 746 mmHg 43%
    17:00 +26°C° 0 mm 6 mps 745 mmHg 47%
    18:00 +25°C° 0 mm 5 mps 745 mmHg 51%
    19:00 +23°C° 0 mm 5 mps 744 mmHg 55%
    20:00 +22°C° 0 mm 5 mps 744 mmHg 59%
    21:00 +21°C° 0 mm 5 mps 743 mmHg 63%
    22:00 +20°C° 0 mm 5 mps 743 mmHg 67%
    23:00 +20°C° 0 mm 5 mps 742 mmHg 67%
    Show more